GW6896 Weather Reports


time (UTC)temp
C
wind
direction
speed
KPH
gust
KPH
rain 1hr
cm
rain 24hr
cm
rain mn
cm
humidity
%
barometer
mb
20260506025640 17 332 1.6 1.6 0.00 0.00 0.00 68 1015.2
20260506025136 18 300 1.6 1.6 0.00 0.00 0.00 67 1015.4
20260506024634 18 348 0.0 1.6 0.00 0.00 0.00 66 1015.3
20260506024130 18 350 0.0 1.6 0.00 0.00 0.00 64 1015.2
20260506023626 19 317 1.6 1.6 0.00 0.00 0.00 63 1015.0
20260506023123 19 306 1.6 1.6 0.00 0.00 0.00 63 1015.0
20260506022621 19 291 0.0 1.6 0.00 0.00 0.00 63 1015.1
20260506022118 19 284 0.0 4.8 0.00 0.00 0.00 62 1014.9
20260506021616 18 297 1.6 4.8 0.00 0.00 0.00 63 1015.1
20260506021113 18 291 1.6 4.8 0.00 0.00 0.00 64 1014.9
20260506020610 18 287 0.0 4.8 0.00 0.00 0.00 65 1014.9
20260506020108 18 298 1.6 4.8 0.00 0.00 0.00 64 1014.9
20260506015605 18 319 1.6 3.2 0.00 0.00 0.00 64 1015.0
20260506015101 18 338 1.6 4.8 0.00 0.00 0.00 65 1015.0
20260506014559 18 42 3.2 6.4 0.00 0.00 0.00 64 1014.8
20260506014054 18 27 3.2 4.8 0.00 0.00 0.00 63 1014.8
20260506013553 18 18 1.6 3.2 0.00 0.00 0.00 63 1014.9
20260506013049 18 288 1.6 3.2 0.00 0.00 0.00 63 1014.9
20260506012545 18 351 0.0 3.2 0.00 0.00 0.00 63 1014.9
20260506012042 18 238 3.2 6.4 0.00 0.00 0.00 64 1014.8
20260506011541 18 6 1.6 3.2 0.00 0.00 0.00 64 1015.0
20260506011036 18 293 3.2 4.8 0.00 0.00 0.00 64 1014.9
20260506010536 18 45 3.2 9.7 0.00 0.00 0.00 64 1014.8
20260506010032 18 323 0.0 4.8 0.00 0.00 0.00 64 1014.9
20260506005529 18 321 3.2 3.2 0.00 0.00 0.00 63 1014.9
20260506005025 18 358 1.6 3.2 0.00 0.00 0.00 63 1014.8
20260506004523 18 296 3.2 6.4 0.00 0.00 0.00 63 1015.1
20260506004019 19 51 4.8 4.8 0.00 0.00 0.00 62 1014.8
20260506003516 19 299 1.6 4.8 0.00 0.00 0.00 62 1015.0
20260506003012 18 3 0.0 3.2 0.00 0.00 0.00 62 1014.9
20260506002508 19 327 1.6 3.2 0.00 0.00 0.00 62 1015.0
20260506002003 19 2 3.2 6.4 0.00 0.00 0.00 61 1014.9
20260506001500 18 276 1.6 3.2 0.00 0.00 0.00 63 1015.0
20260506000958 18 20 1.6 4.8 0.00 0.00 0.00 63 1014.8
20260506000455 18 356 3.2 4.8 0.00 0.00 0.00 62 1015.0
20260505235952 19 342 1.6 3.2 0.00 0.00 0.00 62 1014.8
20260505235450 19 23 1.6 3.2 0.00 0.00 0.00 61 1015.1
20260505234947 19 47 3.2 4.8 0.00 0.00 0.00 61 1015.2
20260505234444 19 311 3.2 6.4 0.00 0.00 0.00 61 1015.2
20260505233940 19 333 8.0 9.7 0.00 0.00 0.00 60 1015.2
20260505233438 19 297 1.6 4.8 0.00 0.00 0.00 60 1015.1
20260505232936 19 304 3.2 9.7 0.00 0.00 0.00 60 1015.3
20260505232434 19 26 1.6 4.8 0.00 0.00 0.00 61 1015.4
20260505231930 19 24 1.6 9.7 0.00 0.00 0.00 61 1015.3
20260505231428 19 152 1.6 9.7 0.00 0.00 0.00 61 1015.5
20260505230926 19 329 1.6 9.7 0.00 0.00 0.00 60 1015.4
20260505230423 19 355 3.2 6.4 0.00 0.00 0.00 61 1015.6
20260505225919 19 296 3.2 6.4 0.00 0.00 0.00 60 1015.6
20260505225417 20 355 0.0 3.2 0.00 0.00 0.00 60 1015.5
20260505224912 20 265 3.2 6.4 0.00 0.00 0.00 59 1015.6
20260505224409 19 43 1.6 4.8 0.00 0.00 0.00 59 1015.7
20260505223906 20 290 1.6 6.4 0.00 0.00 0.00 58 1015.7
20260505223403 19 11 1.6 6.4 0.00 0.00 0.00 58 1015.8
20260505222859 20 299 1.6 4.8 0.00 0.00 0.00 58 1015.7
20260505222356 19 348 0.0 3.2 0.00 0.00 0.00 59 1015.8
20260505221852 19 266 1.6 6.4 0.00 0.00 0.00 59 1015.9
20260505221349 18 285 0.0 4.8 0.00 0.00 0.00 59 1015.9
20260505220846 19 300 1.6 9.7 0.00 0.00 0.00 59 1015.9
20260505220343 19 343 4.8 6.4 0.00 0.00 0.00 57 1016.0
20260505215841 18 222 1.6 3.2 0.00 0.00 0.00 61 1015.9
20260505215339 18 282 0.0 3.2 0.00 0.00 0.00 60 1016.1
20260505214837 18 0 3.2 4.8 0.00 0.00 0.00 58 1016.1
20260505214334 18 22 0.0 1.6 0.00 0.00 0.00 61 1016.1
20260505213831 17 10 1.6 1.6 0.00 0.00 0.00 61 1016.1
20260505213329 17 43 0.0 3.2 0.00 0.00 0.00 61 1016.4
20260505212824 18 28 1.6 3.2 0.00 0.00 0.00 62 1016.1
20260505212322 17 45 0.0 1.6 0.00 0.00 0.00 62 1016.3
20260505211818 17 328 0.0 3.2 0.00 0.00 0.00 64 1016.0
20260505211316 17 311 0.0 3.2 0.00 0.00 0.00 63 1016.3
20260505210812 17 330 0.0 3.2 0.00 0.00 0.00 62 1016.1
20260505210309 17 139 0.0 1.6 0.00 0.00 0.00 62 1016.3
20260505205806 17 142 0.0 1.6 0.00 0.00 0.00 65 1016.4
20260505205305 17 14 1.6 3.2 0.00 0.00 0.00 63 1016.5
20260505204800 17 297 1.6 3.2 0.00 0.00 0.00 63 1016.4
20260505204259 17 332 1.6 3.2 0.00 0.00 0.00 63 1016.6
20260505203755 17 343 0.0 1.6 0.00 0.00 0.00 63 1016.4
20260505203252 17 279 1.6 4.8 0.00 0.00 0.00 64 1016.4
20260505202749 17 330 1.6 1.6 0.00 0.00 0.00 64 1016.4
20260505202244 17 311 1.6 1.6 0.00 0.00 0.00 64 1016.5
20260505201741 17 294 0.0 0.0 0.00 0.00 0.00 63 1016.6
20260505201239 17 348 0.0 4.8 0.00 0.00 0.00 63 1016.5
20260505200737 17 353 0.0 3.2 0.00 0.00 0.00 65 1016.4
20260505200234 16 108 0.0 3.2 0.00 0.00 0.00 64 1016.6
20260505195729 16 357 1.6 1.6 0.00 0.00 0.00 64 1016.6
20260505195227 16 277 0.0 1.6 0.00 0.00 0.00 65 1016.7
20260505194724 16 159 0.0 3.2 0.00 0.00 0.00 66 1016.5
20260505194220 16 327 3.2 3.2 0.00 0.00 0.00 65 1016.6
20260505193716 16 276 0.0 3.2 0.00 0.00 0.00 65 1016.7
20260505193214 16 329 1.6 3.2 0.00 0.00 0.00 65 1016.6
20260505192712 16 257 0.0 1.6 0.00 0.00 0.00 64 1016.4
20260505192209 16 215 1.6 1.6 0.00 0.00 0.00 64 1016.7
20260505191708 16 9 1.6 1.6 0.00 0.00 0.00 65 1016.5
20260505191205 16 1 0.0 1.6 0.00 0.00 0.00 67 1016.5
20260505190701 16 50 0.0 1.6 0.00 0.00 0.00 65 1016.6
20260505190201 16 47 0.0 0.0 0.00 0.00 0.00 68 1016.6
20260505185658 15 51 0.0 1.6 0.00 0.00 0.00 70 1016.5
20260505185155 15 54 1.6 3.2 0.00 0.00 0.00 69 1016.8
20260505184651 15 47 0.0 1.6 0.00 0.00 0.00 69 1016.8
20260505184148 15 47 0.0 1.6 0.00 0.00 0.00 69 1016.4
20260505183645 15 308 0.0 1.6 0.00 0.00 0.00 68 1016.6
20260505183143 15 357 1.6 3.2 0.00 0.00 0.00 68 1016.5
20260505182638 15 32 0.0 1.6 0.00 0.00 0.00 69 1016.5
20260505182136 15 211 0.0 1.6 0.00 0.00 0.00 69 1016.4
20260505181632 15 208 0.0 3.2 0.00 0.00 0.00 69 1016.3
20260505181130 15 293 0.0 1.6 0.00 0.00 0.00 70 1016.5
20260505180625 15 198 0.0 1.6 0.00 0.00 0.00 70 1016.5
20260505180123 15 204 1.6 3.2 0.00 0.00 0.00 70 1016.4
20260505175619 15 283 0.0 3.2 0.00 0.00 0.00 70 1016.4
20260505175116 15 35 1.6 1.6 0.00 0.00 0.00 69 1016.2
20260505174612 15 322 0.0 1.6 0.00 0.00 0.00 70 1016.4
20260505174108 14 322 0.0 1.6 0.00 0.00 0.00 71 1016.5
20260505173605 15 321 1.6 1.6 0.00 0.00 0.00 70 1016.4
20260505173102 15 210 0.0 1.6 0.00 0.00 0.00 70 1016.3
20260505172600 15 176 0.0 1.6 0.00 0.00 0.00 70 1016.3
20260505172056 15 217 0.0 3.2 0.00 0.00 0.00 69 1016.3
20260505171551 15 19 0.0 0.0 0.00 0.00 0.00 69 1016.3
20260505171048 15 19 0.0 1.6 0.00 0.00 0.00 70 1016.4
20260505170545 15 25 0.0 0.0 0.00 0.00 0.00 71 1016.1
20260505170041 15 25 0.0 1.6 0.00 0.00 0.00 70 1016.2
20260505165537 14 25 0.0 0.0 0.00 0.00 0.00 72 1016.2
20260505165032 14 25 0.0 0.0 0.00 0.00 0.00 71 1016.2
20260505164529 14 25 0.0 0.0 0.00 0.00 0.00 73 1016.3
20260505164026 14 25 0.0 0.0 0.00 0.00 0.00 73 1016.3
20260505163525 13 25 0.0 1.6 0.00 0.00 0.00 74 1016.2
20260505163021 14 25 0.0 1.6 0.00 0.00 0.00 72 1016.5
20260505162515 13 333 0.0 0.0 0.00 0.00 0.00 73 1016.3
20260505162012 13 334 0.0 1.6 0.00 0.00 0.00 74 1016.4
20260505161508 13 335 0.0 0.0 0.00 0.00 0.00 73 1016.3
20260505161006 13 315 0.0 1.6 0.00 0.00 0.00 74 1016.3
20260505160504 13 108 0.0 1.6 0.00 0.00 0.00 75 1016.4
20260505152940 13 214 0.0 1.6 0.00 0.00 0.00 76 1016.2
20260505152437 13 350 0.0 0.0 0.00 0.00 0.00 76 1016.3
20260505151932 13 350 0.0 1.6 0.00 0.00 0.00 76 1016.5
20260505151427 13 336 0.0 1.6 0.00 0.00 0.00 76 1016.2
20260505150925 13 335 0.0 0.0 0.00 0.00 0.00 77 1016.1
20260505150422 13 324 1.6 3.2 0.00 0.00 0.00 77 1016.1
20260505140351 12 341 0.0 1.6 0.00 0.00 0.00 80 1016.1
20260505124805 12 113 0.0 0.0 0.00 0.00 0.00 80 1015.4
20260505124302 12 113 0.0 0.0 0.00 0.00 0.00 80 1015.5
20260505123758 12 53 0.0 0.0 0.00 0.00 0.00 80 1015.4
20260505123255 12 339 0.0 0.0 0.00 0.00 0.00 80 1015.5
20260505122751 12 341 0.0 0.0 0.00 0.00 0.00 81 1015.2
20260505122248 12 341 0.0 1.6 0.00 0.00 0.00 80 1015.4
20260505121745 12 341 0.0 1.6 0.00 0.00 0.00 80 1015.3
20260505121242 12 341 0.0 0.0 0.00 0.00 0.00 81 1015.1
20260505120738 12 344 0.0 3.2 0.00 0.00 0.00 81 1015.1
20260505120234 12 352 0.0 1.6 0.00 0.00 0.00 81 1015.1
20260505115733 12 352 0.0 1.6 0.00 0.00 0.00 81 1015.2
20260505115231 12 353 0.0 1.6 0.00 0.00 0.00 81 1015.1
20260505114728 12 353 0.0 1.6 0.00 0.00 0.00 82 1015.2
20260505114223 12 353 0.0 0.0 0.00 0.00 0.00 82 1015.2
20260505113720 12 353 0.0 1.6 0.00 0.00 0.00 82 1015.1
20260505113217 12 353 0.0 0.0 0.00 0.00 0.00 82 1015.3
20260505112713 12 352 0.0 0.0 0.00 0.00 0.00 82 1015.3
20260505112212 12 352 0.0 0.0 0.00 0.00 0.00 82 1015.3
20260505111711 12 350 1.6 1.6 0.00 0.00 0.00 82 1015.2
20260505111207 12 323 0.0 1.6 0.00 0.00 0.00 82 1015.3
20260505110703 12 352 0.0 1.6 0.00 0.00 0.00 82 1015.2
20260505110201 12 26 0.0 1.6 0.00 0.00 0.00 83 1015.3
20260505102136 12 109 0.0 1.6 0.00 0.00 0.00 84 1015.0
20260505101635 12 248 1.6 1.6 0.00 0.00 0.00 84 1014.8
20260505101131 12 322 0.0 3.2 0.00 0.00 0.00 84 1014.9
20260505100627 12 337 1.6 4.8 0.00 0.00 0.00 84 1015.0
20260505100124 12 111 0.0 0.0 0.00 0.00 0.00 84 1015.0
20260505095620 12 131 0.0 1.6 0.00 0.00 0.00 84 1014.7
20260505095117 12 135 0.0 0.0 0.00 0.00 0.00 84 1014.7
20260505094613 12 137 0.0 3.2 0.00 0.00 0.00 83 1015.0
20260505094110 12 170 0.0 1.6 0.00 0.00 0.00 83 1014.8
20260505093606 12 173 1.6 1.6 0.00 0.00 0.00 83 1014.7
20260505093104 12 173 0.0 1.6 0.00 0.00 0.00 83 1014.9
20260505092601 12 195 0.0 1.6 0.00 0.00 0.00 83 1014.8
20260505092100 12 200 0.0 1.6 0.00 0.00 0.00 84 1015.0
20260505091556 12 321 0.0 1.6 0.00 0.00 0.00 84 1014.8
20260505091054 12 288 0.0 0.0 0.00 0.00 0.00 85 1014.7
20260505090552 12 288 0.0 0.0 0.00 0.00 0.00 85 1014.8
20260505090050 12 287 0.0 3.2 0.00 0.00 0.00 85 1014.8
20260505085547 12 297 0.0 0.0 0.00 0.00 0.00 85 1014.9
20260505085045 12 296 0.0 1.6 0.00 0.00 0.00 84 1014.8
20260505084543 12 296 1.6 1.6 0.00 0.00 0.00 83 1014.8
20260505084041 12 296 0.0 1.6 0.00 0.00 0.00 83 1014.9
20260505083537 12 282 0.0 1.6 0.00 0.00 0.00 83 1014.9
20260505083034 12 261 0.0 0.0 0.00 0.00 0.00 83 1015.0
20260505082530 12 261 0.0 1.6 0.00 0.00 0.00 83 1015.1
20260505082027 12 200 0.0 1.6 0.00 0.00 0.00 83 1015.0
20260505081523 12 259 0.0 3.2 0.00 0.00 0.00 83 1015.0
20260505081021 12 201 0.0 1.6 0.00 0.00 0.00 83 1015.0
20260505080517 12 206 0.0 3.2 0.00 0.00 0.00 83 1015.0
20260505080014 12 181 0.0 1.6 0.00 0.00 0.00 83 1015.1
20260505075509 12 181 0.0 1.6 0.00 0.00 0.00 82 1015.1
20260505075006 12 196 1.6 3.2 0.00 0.00 0.00 82 1015.0
20260505074504 12 350 0.0 1.6 0.00 0.00 0.00 81 1015.0
20260505074001 12 348 0.0 1.6 0.00 0.00 0.00 81 1014.9
20260505073458 12 336 0.0 0.0 0.00 0.00 0.00 80 1015.1
20260505072955 12 336 1.6 1.6 0.00 0.00 0.00 80 1015.0
20260505072452 12 344 0.0 1.6 0.00 0.00 0.00 80 1015.1
20260505071948 12 341 0.0 1.6 0.00 0.00 0.00 79 1014.9
20260505071444 12 326 0.0 3.2 0.00 0.00 0.00 79 1015.0
20260505070942 12 329 0.0 1.6 0.00 0.00 0.00 79 1014.8
20260505070438 12 303 1.6 4.8 0.00 0.00 0.00 78 1014.9
20260505065934 13 302 0.0 3.2 0.00 0.00 0.00 78 1014.8
20260505065431 13 202 0.0 3.2 0.00 0.00 0.00 78 1014.9
20260505064928 13 318 1.6 3.2 0.00 0.00 0.00 78 1014.8
20260505064425 13 334 1.6 3.2 0.00 0.00 0.00 78 1014.6
20260505063923 13 329 1.6 6.4 0.00 0.00 0.00 78 1014.9
20260505063419 13 329 1.6 3.2 0.00 0.00 0.00 78 1014.8
20260505062915 13 325 0.0 4.8 0.00 0.00 0.00 77 1014.9
20260505062413 13 220 0.0 1.6 0.00 0.00 0.00 78 1014.7
20260505061909 13 308 0.0 1.6 0.00 0.00 0.00 77 1014.7
20260505061408 13 21 0.0 4.8 0.00 0.00 0.00 77 1014.8
20260505060905 13 317 1.6 1.6 0.00 0.00 0.00 77 1014.7
20260505060401 13 319 0.0 1.6 0.00 0.00 0.00 77 1014.7
20260505055858 13 292 0.0 0.0 0.00 0.00 0.00 77 1014.6
20260505055354 13 291 0.0 3.2 0.00 0.00 0.00 77 1014.9
20260505054851 13 0 0.0 1.6 0.00 0.00 0.00 77 1014.8
20260505054348 13 331 1.6 1.6 0.00 0.00 0.00 77 1014.6
20260505053846 13 339 0.0 1.6 0.00 0.00 0.00 77 1014.5
20260505053343 13 330 0.0 1.6 0.00 0.00 0.00 77 1014.6
20260505052840 13 311 1.6 1.6 0.00 0.00 0.00 77 1014.5
20260505052337 13 308 0.0 1.6 0.00 0.00 0.00 77 1014.4
20260505051834 13 314 1.6 1.6 0.00 0.00 0.00 77 1014.6
20260505051331 13 335 0.0 0.0 0.00 0.00 0.00 77 1014.5
20260505050829 13 306 0.0 1.6 0.00 0.00 0.00 77 1014.6
20260505050328 13 292 0.0 0.0 0.00 0.00 0.00 77 1014.3
20260505041757 13 342 1.6 4.8 0.00 0.00 0.00 78 1014.0
20260505041254 13 322 1.6 1.6 0.00 0.00 0.00 78 1013.8
20260505040752 13 344 0.0 1.6 0.00 0.00 0.00 78 1013.7
20260505040249 13 289 1.6 3.2 0.00 0.00 0.00 78 1013.7
20260505035746 13 291 0.0 1.6 0.00 0.00 0.00 77 1013.8
20260505035242 13 317 0.0 0.0 0.00 0.00 0.00 77 1013.7
20260505034739 13 67 1.6 3.2 0.00 0.00 0.00 77 1013.8
20260505034236 13 183 0.0 1.6 0.00 0.00 0.00 76 1013.4
20260505033732 13 324 0.0 0.0 0.00 0.00 0.00 76 1013.4
20260505033230 14 314 0.0 0.0 0.00 0.00 0.00 76 1013.4
20260505032728 14 317 0.0 0.0 0.00 0.00 0.00 75 1013.4
20260505032224 14 117 0.0 3.2 0.00 0.00 0.00 75 1013.3
20260505031721 14 328 1.6 3.2 0.00 0.00 0.00 74 1013.2
20260505031217 15 198 0.0 1.6 0.00 0.00 0.00 74 1013.1
20260505030715 15 323 0.0 3.2 0.00 0.00 0.00 73 1013.0
20260505030211 15 317 0.0 1.6 0.00 0.00 0.00 73 1012.9